FENGYUN 1C DEB

Satellite information

Favourite Embed

Satellite Type and Status

DEBRISIN ORBIT

Key statistics

Satellite FENGYUN 1C DEB at a glance.

Uptime

9494

Days in orbit

Revolutions

≈ 14.2

Per day

Orbit

SSO

Sun Synchronous Orbit

Inclination

98.7

Latest

Satellite identification and parameters

Extended collection of information and parameters for FENGYUN 1C DEB.

Object identification

Identified? True

Debris? True

Object name: FENGYUN 1C DEB

International designator: 1999-025EPB

Object number (NORAD): 37926

Object ID (CCSDS): 37926

Country: PEOPLES REPUBLIC OF CHINA (PRC)

Current information (Y/N): Y

RCS size: SMALL

Orbital parameters

Period: 101.22 minutes

Inclination: 98.7357 deg

SMA: 7194.585 km

Apoapsis: 857.306 km

Periapsis: 775.595 km

RAAN: 191.0399 deg

Eccentricy: 0.0056786

Argument of periapsis: 140.9286 deg

Mean anomaly: 274.0082 deg

Mean motion: 14.22637001 rev/day

Mean motion (dot): 0.0000398 rev/day2

B* drag term: 0.0017689 1/REarth

Two-line elements (TLE)

Creation date: May 7, 2025, 3:14 a.m.

Reference frame: TEME

Reference center: EARTH

Epoch: May 6, 2025, 3:24 a.m. UTC

TLE line 0: 0 FENGYUN 1C DEB

TLE line 1: 1 37926U 99025EPB 25126.14194209 .00003980 00000-0 17689-2 0 9991

TLE line 2: 2 37926 98.7357 191.0399 0056786 140.9286 274.0082 14.22637001711325

Live tracking on map

Real-time ground track for satellite FENGYUN 1C DEB.

In-orbit conjunctions

A list of the most updated potential collisions computed for object FENGYUN 1C DEB.

Target Orbit TCA Probability of collision Miss distance Type
COSMOS 1603 LEO 2025-02-20 21:17:31 0.0001170519 205.0 (m) PAYLOAD
PEGASUS R/B LEO 2024-06-28 06:47:35 0.0001521674 710.0 (m) ROCKET BODY

Associated space launch

Chinese polar orbiting meteorological satellite

FENGYUN 1C DEB was lifted into orbit during the mission ‘Long March 4B | Feng Yun 1C’, on board a Long March 4B space rocket.

The launch took place on May 10, 1999, 1:33 a.m. from Launch Complex 7.

For more information about the launch, click the button.

Launch to space Long March 4B | Feng Yun 1C
Long March 4B | Feng Yun 1C

Agency: N/A

Status: Launch Successful

Launch date: May 10, 1999, 1:33 a.m. UTC

Rocket: Long March 4B

Launch pad: Launch Complex 7

Location: Taiyuan Satellite Launch Center, People's Republic of China

...

Latest news about this satellite

There are no fresh news available about this satellite. Check back as we update our databases every day.


Newsletter sign-up

Weekly statistics, charts and insights to help you stay on top of the space industry.